• In Österreich
  • Länderverzeichnis
  • Für 7 Tage
  • Wassertemperatur
  • Satellitenkarten
  • Wetterkarte
  • News
  • Widgets
  • user-avatar
    Anmelden

    Stündliche Wetter Hamburg

    Heute, 23 Oktober, Dienstag

    Zeit Temperatur Niederschläge Wind Luftdruck Luftfeuchtigkeit
    00:00 +8°C° 0 mm 6 m/S 769 mmHg 74%
    01:00 +7°C° 0 mm 5 m/S 767 mmHg 74%
    02:00 +8°C° 0 mm 6 m/S 766 mmHg 74%
    03:00 +8°C° 0 mm 7 m/S 765 mmHg 74%
    04:00 +7°C° 0 mm 9 m/S 764 mmHg 75%
    05:00 +8°C° 0.5 mm 9 m/S 763 mmHg 77%
    06:00 +8°C° 0.5 mm 9 m/S 762 mmHg 80%
    07:00 +10°C° 0.5 mm 9 m/S 761 mmHg 83%
    08:00 +10°C° 1.1 mm 9 m/S 760 mmHg 84%
    09:00 +11°C° 1.1 mm 9 m/S 760 mmHg 85%
    10:00 +11°C° 1.1 mm 9 m/S 759 mmHg 86%
    11:00 +11°C° 0.3 mm 9 m/S 759 mmHg 85%
    12:00 +12°C° 0.3 mm 10 m/S 758 mmHg 84%
    13:00 +12°C° 0.3 mm 10 m/S 758 mmHg 83%
    14:00 +12°C° 0.2 mm 9 m/S 758 mmHg 84%
    15:00 +12°C° 0.2 mm 9 m/S 758 mmHg 84%
    16:00 +12°C° 0.2 mm 9 m/S 757 mmHg 84%
    17:00 +12°C° 0.3 mm 9 m/S 757 mmHg 84%
    18:00 +12°C° 0.3 mm 9 m/S 757 mmHg 84%
    19:00 +12°C° 0.3 mm 9 m/S 757 mmHg 84%
    20:00 +12°C° 0.2 mm 9 m/S 757 mmHg 83%
    21:00 +12°C° 0.2 mm 9 m/S 757 mmHg 82%
    22:00 +12°C° 0.2 mm 9 m/S 758 mmHg 81%
    23:00 +11°C° 0.1 mm 9 m/S 758 mmHg 79%

    Morgen, 24 Oktober, Mittwoch

    Zeit Temperatur Niederschläge Wind Luftdruck Luftfeuchtigkeit
    00:00 +10°C° 0.1 mm 8 m/S 758 mmHg 77%
    01:00 +10°C° 0.1 mm 8 m/S 758 mmHg 75%
    02:00 +10°C° 0 mm 7 m/S 758 mmHg 74%
    03:00 +10°C° 0 mm 7 m/S 758 mmHg 74%
    04:00 +9°C° 0 mm 7 m/S 759 mmHg 73%
    05:00 +9°C° 0 mm 7 m/S 759 mmHg 72%
    06:00 +9°C° 0 mm 6 m/S 760 mmHg 71%
    07:00 +9°C° 0 mm 6 m/S 760 mmHg 70%
    08:00 +9°C° 0 mm 6 m/S 761 mmHg 67%
    09:00 +9°C° 0 mm 7 m/S 762 mmHg 64%
    10:00 +9°C° 0 mm 7 m/S 762 mmHg 61%
    11:00 +10°C° 0 mm 7 m/S 763 mmHg 59%
    12:00 +10°C° 0 mm 6 m/S 763 mmHg 57%
    13:00 +11°C° 0 mm 6 m/S 763 mmHg 55%
    14:00 +10°C° 0 mm 6 m/S 763 mmHg 57%
    15:00 +10°C° 0 mm 5 m/S 763 mmHg 60%
    16:00 +10°C° 0 mm 5 m/S 763 mmHg 62%
    17:00 +11°C° 0 mm 4 m/S 763 mmHg 68%
    18:00 +10°C° 0 mm 4 m/S 763 mmHg 73%
    19:00 +10°C° 0 mm 3 m/S 763 mmHg 79%
    20:00 +11°C° 0.1 mm 4 m/S 763 mmHg 82%
    21:00 +10°C° 0.1 mm 5 m/S 762 mmHg 86%
    22:00 +12°C° 0.1 mm 5 m/S 762 mmHg 89%
    23:00 +11°C° 0.1 mm 6 m/S 762 mmHg 88%

    übermorgen, 25 Oktober, Donnerstag

    Zeit Temperatur Niederschläge Wind Luftdruck Luftfeuchtigkeit
    00:00 +11°C° 0.1 mm 6 m/S 761 mmHg 88%
    01:00 +12°C° 0.1 mm 7 m/S 761 mmHg 87%
    02:00 +12°C° 0.1 mm 7 m/S 761 mmHg 87%
    03:00 +11°C° 0.1 mm 7 m/S 760 mmHg 87%
    04:00 +11°C° 0.1 mm 7 m/S 760 mmHg 87%
    05:00 +11°C° 0.1 mm 7 m/S 760 mmHg 87%
    06:00 +11°C° 0.1 mm 7 m/S 759 mmHg 87%
    07:00 +11°C° 0.1 mm 7 m/S 759 mmHg 87%
    08:00 +11°C° 0.1 mm 7 m/S 759 mmHg 87%
    09:00 +11°C° 0.1 mm 7 m/S 759 mmHg 86%
    10:00 +11°C° 0.1 mm 7 m/S 759 mmHg 86%
    11:00 +11°C° 0.2 mm 7 m/S 759 mmHg 85%
    12:00 +11°C° 0.2 mm 7 m/S 758 mmHg 84%
    13:00 +12°C° 0.2 mm 7 m/S 758 mmHg 83%
    14:00 +11°C° 0.1 mm 7 m/S 758 mmHg 82%
    15:00 +11°C° 0.1 mm 6 m/S 758 mmHg 80%
    16:00 +11°C° 0.1 mm 6 m/S 758 mmHg 78%
    17:00 +10°C° 0.1 mm 6 m/S 758 mmHg 80%
    18:00 +10°C° 0.1 mm 5 m/S 758 mmHg 81%
    19:00 +10°C° 0.1 mm 4 m/S 758 mmHg 82%
    20:00 +10°C° 0 mm 4 m/S 758 mmHg 82%
    21:00 +10°C° 0 mm 4 m/S 758 mmHg 82%
    22:00 +9°C° 0 mm 3 m/S 758 mmHg 82%
    23:00 +9°C° 0 mm 3 m/S 758 mmHg 84%

    26 Oktober, Freitag

    Zeit Temperatur Niederschläge Wind Luftdruck Luftfeuchtigkeit
    00:00 +9°C° 0 mm 3 m/S 758 mmHg 86%
    01:00 +10°C° 0 mm 3 m/S 757 mmHg 88%
    02:00 +10°C° 0.4 mm 3 m/S 757 mmHg 89%
    03:00 +10°C° 0.4 mm 3 m/S 756 mmHg 91%
    04:00 +10°C° 0.4 mm 4 m/S 756 mmHg 93%
    05:00 +10°C° 0.4 mm 4 m/S 755 mmHg 93%
    06:00 +10°C° 0.4 mm 4 m/S 755 mmHg 93%
    07:00 +9°C° 0.4 mm 5 m/S 754 mmHg 93%
    08:00 +10°C° 0.1 mm 5 m/S 754 mmHg 90%
    09:00 +10°C° 0.1 mm 6 m/S 753 mmHg 88%
    10:00 +10°C° 0.1 mm 6 m/S 753 mmHg 85%
    11:00 +10°C° 0.1 mm 7 m/S 752 mmHg 83%
    12:00 +10°C° 0.1 mm 7 m/S 752 mmHg 81%
    13:00 +10°C° 0.1 mm 7 m/S 751 mmHg 79%
    14:00 +10°C° 0.2 mm 7 m/S 751 mmHg 79%
    15:00 +10°C° 0.2 mm 7 m/S 750 mmHg 79%
    16:00 +10°C° 0.2 mm 7 m/S 750 mmHg 79%
    17:00 +9°C° 0.3 mm 6 m/S 750 mmHg 81%
    18:00 +9°C° 0.3 mm 6 m/S 750 mmHg 83%
    19:00 +8°C° 0.3 mm 5 m/S 750 mmHg 85%
    20:00 +7°C° 0.2 mm 5 m/S 750 mmHg 86%
    21:00 +7°C° 0.2 mm 4 m/S 750 mmHg 87%
    22:00 +6°C° 0.2 mm 4 m/S 751 mmHg 88%
    23:00 +6°C° 0.1 mm 4 m/S 751 mmHg 87%

    27 Oktober, Samstag

    Zeit Temperatur Niederschläge Wind Luftdruck Luftfeuchtigkeit
    00:00 +6°C° 0.1 mm 4 m/S 751 mmHg 86%
    01:00 +5°C° 0.1 mm 4 m/S 751 mmHg 85%
    02:00 +5°C° 0 mm 4 m/S 751 mmHg 85%
    03:00 +5°C° 0 mm 4 m/S 751 mmHg 85%
    04:00 +4°C° 0 mm 4 m/S 751 mmHg 84%
    05:00 +4°C° 0 mm 4 m/S 752 mmHg 85%
    06:00 +4°C° 0 mm 4 m/S 752 mmHg 86%
    07:00 +3°C° 0 mm 3 m/S 752 mmHg 87%
    08:00 +4°C° 0 mm 3 m/S 753 mmHg 82%
    09:00 +5°C° 0 mm 3 m/S 753 mmHg 78%
    10:00 +8°C° 0 mm 3 m/S 754 mmHg 73%
    11:00 +8°C° 0.1 mm 3 m/S 754 mmHg 69%
    12:00 +8°C° 0.1 mm 4 m/S 754 mmHg 65%
    13:00 +8°C° 0.1 mm 4 m/S 755 mmHg 61%
    14:00 +9°C° 0.1 mm 3 m/S 755 mmHg 63%
    15:00 +8°C° 0.1 mm 3 m/S 755 mmHg 64%
    16:00 +8°C° 0.1 mm 2 m/S 755 mmHg 66%
    17:00 +7°C° 0.1 mm 2 m/S 756 mmHg 70%
    18:00 +5°C° 0.1 mm 2 m/S 756 mmHg 74%
    19:00 +5°C° 0.1 mm 1 m/S 756 mmHg 78%
    20:00 +5°C° 0 mm 1 m/S 757 mmHg 79%
    21:00 +4°C° 0 mm 1 m/S 757 mmHg 81%
    22:00 +4°C° 0 mm 1 m/S 757 mmHg 82%
    23:00 +4°C° 0.1 mm 1 m/S 758 mmHg 84%

    28 Oktober, Sonntag

    Zeit Temperatur Niederschläge Wind Luftdruck Luftfeuchtigkeit
    00:00 +4°C° 0.1 mm 1 m/S 758 mmHg 85%
    01:00 +3°C° 0.1 mm 1 m/S 758 mmHg 86%
    02:00 +3°C° 0 mm 1 m/S 758 mmHg 87%
    03:00 +2°C° 0 mm 2 m/S 758 mmHg 88%
    04:00 +2°C° 0 mm 2 m/S 758 mmHg 89%
    05:00 +2°C° 0 mm 2 m/S 759 mmHg 89%
    06:00 +1°C° 0 mm 3 m/S 759 mmHg 89%
    07:00 +1°C° 0 mm 3 m/S 759 mmHg 89%
    08:00 +1°C° 0 mm 4 m/S 760 mmHg 83%
    09:00 +3°C° 0 mm 4 m/S 760 mmHg 76%
    10:00 +3°C° 0 mm 5 m/S 760 mmHg 70%
    11:00 +5°C° 0 mm 5 m/S 760 mmHg 65%
    12:00 +5°C° 0 mm 5 m/S 760 mmHg 60%
    13:00 +6°C° 0 mm 5 m/S 760 mmHg 56%
    14:00 +5°C° 0 mm 5 m/S 760 mmHg 56%
    15:00 +5°C° 0 mm 5 m/S 760 mmHg 57%
    16:00 +4°C° 0 mm 4 m/S 760 mmHg 58%
    17:00 +3°C° 0 mm 4 m/S 760 mmHg 61%
    18:00 +3°C° 0 mm 4 m/S 761 mmHg 65%
    19:00 +2°C° 0 mm 3 m/S 761 mmHg 68%
    20:00 +1°C° 0 mm 4 m/S 760 mmHg 70%
    21:00 0°C° 0 mm 4 m/S 760 mmHg 71%
    22:00 0°C° 0 mm 4 m/S 760 mmHg 73%
    23:00 0°C° 0 mm 4 m/S 760 mmHg 75%

    29 Oktober, Montag

    Zeit Temperatur Niederschläge Wind Luftdruck Luftfeuchtigkeit
    00:00 0°C° 0 mm 4 m/S 759 mmHg 76%
    01:00 +1°C° 0 mm 4 m/S 759 mmHg 78%
    02:00 +1°C° 0.3 mm 5 m/S 759 mmHg 80%
    03:00 +1°C° 0.3 mm 5 m/S 758 mmHg 82%
    04:00 +2°C° 0.3 mm 5 m/S 758 mmHg 83%
    05:00 +2°C° 0.4 mm 5 m/S 757 mmHg 84%
    06:00 +2°C° 0.4 mm 5 m/S 757 mmHg 86%
    07:00 +2°C° 0.4 mm 5 m/S 757 mmHg 87%
    08:00 +3°C° 0.3 mm 5 m/S 757 mmHg 83%
    09:00 +3°C° 0.3 mm 5 m/S 756 mmHg 80%
    10:00 +4°C° 0.3 mm 6 m/S 756 mmHg 77%
    11:00 +4°C° 0.2 mm 6 m/S 756 mmHg 74%
    12:00 +5°C° 0.2 mm 6 m/S 755 mmHg 72%
    13:00 +5°C° 0.2 mm 6 m/S 755 mmHg 69%
    14:00 +6°C° 0.1 mm 5 m/S 754 mmHg 69%
    15:00 +5°C° 0.1 mm 5 m/S 754 mmHg 70%
    16:00 +5°C° 0.1 mm 4 m/S 753 mmHg 70%
    17:00 +5°C° 0 mm 4 m/S 753 mmHg 72%
    18:00 +4°C° 0 mm 4 m/S 753 mmHg 74%
    19:00 +4°C° 0 mm 4 m/S 753 mmHg 76%
    20:00 +3°C° 0.1 mm 5 m/S 752 mmHg 77%
    21:00 +2°C° 0.1 mm 5 m/S 752 mmHg 78%
    22:00 +2°C° 0.1 mm 6 m/S 751 mmHg 79%
    23:00 +2°C° 0.1 mm 6 m/S 750 mmHg 79%
    Mehr zeigen